HYT7782 ZBAA-ZYTX

Flight info

Callsign HYT7782
Flight time 1h 12m
Altitude 29100
Route DOTRA5Y DOTRA B334 KAKAT W31 CHG A575 OMDUS OMD73A
Aircraft B752/M-SDE2E3FGHIJ3J4J7RWXY/LB1

Departure

Time 2026-04-17 10:27
Airport Beijing Capital International Airport (ZBAA)

Arrival

Time 2026-04-17 11:39
Airport Shenyang Taoxian International Airport (ZYTX)
Time Latitude Longitude Altitude Speed Heading
2026-04-17 09:43 40.09942 116.58733 126 ft 0 kts 264°
2026-04-17 10:08 40.09943 116.58736 126 ft 1 kts 264°
2026-04-17 10:08 40.09944 116.58755 126 ft 2 kts 264°
2026-04-17 10:08 40.09946 116.58775 126 ft 2 kts 264°
2026-04-17 10:09 40.09947 116.58784 126 ft 2 kts 264°
2026-04-17 10:09 40.09948 116.58804 126 ft 2 kts 271°
2026-04-17 10:09 40.09946 116.58823 126 ft 2 kts 292°
2026-04-17 10:09 40.09938 116.58839 126 ft 2 kts 310°
2026-04-17 10:10 40.09927 116.58852 126 ft 2 kts 327°
2026-04-17 10:10 40.09914 116.58861 126 ft 2 kts 345°
2026-04-17 10:10 40.09907 116.58863 126 ft 1 kts 354°
2026-04-17 10:11 40.09904 116.58863 126 ft 0 kts 352°
2026-04-17 10:13 40.09911 116.58862 126 ft 3 kts 352°
2026-04-17 10:13 40.09939 116.58857 126 ft 0 kts 352°
2026-04-17 10:14 40.09940 116.58857 125 ft 0 kts 352°
2026-04-17 10:14 40.09972 116.58852 125 ft 8 kts 353°
2026-04-17 10:15 40.10022 116.58871 125 ft 8 kts 42°
2026-04-17 10:15 40.10042 116.58930 125 ft 6 kts 86°
2026-04-17 10:15 40.10043 116.58994 126 ft 7 kts 90°
2026-04-17 10:15 40.10045 116.59066 125 ft 7 kts 88°
2026-04-17 10:16 40.10051 116.59135 125 ft 11 kts 81°
2026-04-17 10:16 40.10066 116.59269 126 ft 16 kts 83°
2026-04-17 10:16 40.10080 116.59419 125 ft 16 kts 83°
2026-04-17 10:16 40.10092 116.59563 126 ft 15 kts 84°
2026-04-17 10:17 40.10053 116.59654 125 ft 12 kts 160°
2026-04-17 10:17 40.09916 116.59681 126 ft 25 kts 174°
2026-04-17 10:17 40.09713 116.59712 126 ft 31 kts 174°
2026-04-17 10:17 40.09500 116.59745 126 ft 30 kts 174°
2026-04-17 10:18 40.09296 116.59778 126 ft 28 kts 174°
2026-04-17 10:18 40.09100 116.59808 126 ft 28 kts 173°
2026-04-17 10:18 40.08897 116.59837 126 ft 28 kts 173°
2026-04-17 10:18 40.08705 116.59870 125 ft 27 kts 174°
2026-04-17 10:19 40.08513 116.59900 125 ft 28 kts 174°
2026-04-17 10:19 40.08329 116.59929 126 ft 16 kts 174°
2026-04-17 10:19 40.08213 116.59920 125 ft 17 kts 223°
2026-04-17 10:19 40.08121 116.59844 125 ft 16 kts 173°
2026-04-17 10:20 40.07959 116.59872 125 ft 29 kts 173°
2026-04-17 10:20 40.07702 116.59911 125 ft 43 kts 174°
2026-04-17 10:20 40.07403 116.59958 126 ft 42 kts 174°
2026-04-17 10:20 40.07127 116.60001 126 ft 38 kts 173°
2026-04-17 10:21 40.06929 116.60032 125 ft 26 kts 174°
2026-04-17 10:21 40.06751 116.60062 125 ft 24 kts 173°
2026-04-17 10:21 40.06583 116.60088 125 ft 23 kts 173°
2026-04-17 10:21 40.06422 116.60113 125 ft 22 kts 173°
2026-04-17 10:22 40.06268 116.60138 125 ft 21 kts 174°
2026-04-17 10:22 40.06123 116.60159 125 ft 20 kts 174°
2026-04-17 10:22 40.05983 116.60182 125 ft 19 kts 174°
2026-04-17 10:22 40.05851 116.60204 125 ft 18 kts 175°
2026-04-17 10:23 40.05731 116.60221 125 ft 8 kts 174°
2026-04-17 10:23 40.05726 116.60222 125 ft 0 kts 174°
2026-04-17 10:23 40.05709 116.60224 125 ft 4 kts 174°
2026-04-17 10:23 40.05667 116.60229 125 ft 5 kts 181°
2026-04-17 10:24 40.05634 116.60215 125 ft 3 kts 227°
2026-04-17 10:24 40.05632 116.60206 125 ft 0 kts 258°
2026-04-17 10:25 40.05631 116.60203 125 ft 1 kts 258°
2026-04-17 10:25 40.05627 116.60173 125 ft 4 kts 261°
2026-04-17 10:25 40.05621 116.60124 125 ft 6 kts 262°
2026-04-17 10:25 40.05618 116.60059 125 ft 7 kts 275°
2026-04-17 10:26 40.05642 116.60008 125 ft 6 kts 335°
2026-04-17 10:26 40.05742 116.59985 125 ft 36 kts 353°
2026-04-17 10:26 40.06334 116.59889 126 ft 132 kts 353°
2026-04-17 10:26 40.07493 116.59698 287 ft 196 kts 348°
2026-04-17 10:27 40.08951 116.59422 644 ft 206 kts 352°
2026-04-17 10:27 40.10269 116.59209 904 ft 175 kts 353°
2026-04-17 10:27 40.11491 116.59013 1372 ft 185 kts 352°
2026-04-17 10:27 40.12813 116.58805 1940 ft 201 kts 353°
2026-04-17 10:28 40.14257 116.58584 2580 ft 216 kts 353°
2026-04-17 10:28 40.15786 116.58350 3169 ft 234 kts 353°
2026-04-17 10:28 40.17464 116.58095 3853 ft 250 kts 352°
2026-04-17 10:28 40.19231 116.57827 4501 ft 267 kts 352°
2026-04-17 10:29 40.21117 116.57541 5323 ft 276 kts 351°
2026-04-17 10:29 40.23006 116.57256 6350 ft 277 kts 350°
2026-04-17 10:29 40.24912 116.56965 7321 ft 278 kts 350°
2026-04-17 10:29 40.26800 116.56652 8318 ft 278 kts 349°
2026-04-17 10:30 40.28727 116.56327 9273 ft 279 kts 349°
2026-04-17 10:30 40.30613 116.56010 10233 ft 278 kts 348°
2026-04-17 10:30 40.32562 116.55677 10774 ft 294 kts 349°
2026-04-17 10:30 40.34672 116.55318 11228 ft 312 kts 349°
2026-04-17 10:31 40.36885 116.54944 11671 ft 330 kts 349°
2026-04-17 10:31 40.39223 116.54549 12019 ft 349 kts 349°
2026-04-17 10:31 40.41694 116.54154 12535 ft 362 kts 353°
2026-04-17 10:31 40.44181 116.54236 13428 ft 364 kts
2026-04-17 10:32 40.46741 116.54411 14232 ft 367 kts 359°
2026-04-17 10:32 40.49283 116.54584 15053 ft 368 kts 360°
2026-04-17 10:32 40.51823 116.55000 15730 ft 377 kts 11°
2026-04-17 10:32 40.54271 116.56322 16497 ft 387 kts 26°
2026-04-17 10:33 40.56484 116.58474 17154 ft 397 kts 37°
2026-04-17 10:33 40.58580 116.60854 17839 ft 401 kts 36°
2026-04-17 10:33 40.60692 116.63224 18543 ft 403 kts 36°
2026-04-17 10:33 40.62825 116.65623 19210 ft 406 kts 36°
2026-04-17 10:34 40.64983 116.68053 19910 ft 408 kts 36°
2026-04-17 10:34 40.67144 116.70487 20567 ft 411 kts 36°
2026-04-17 10:34 40.69299 116.72918 21173 ft 414 kts 36°
2026-04-17 10:34 40.71498 116.75392 21786 ft 416 kts 34°
2026-04-17 10:35 40.73844 116.77555 22399 ft 411 kts 25°
2026-04-17 10:35 40.76423 116.79102 22957 ft 408 kts 15°
2026-04-17 10:35 40.79156 116.79977 23598 ft 404 kts
2026-04-17 10:35 40.81956 116.80302 23978 ft 409 kts
2026-04-17 10:36 40.84823 116.80528 24560 ft 411 kts
2026-04-17 10:36 40.87653 116.80726 25034 ft 414 kts 360°
2026-04-17 10:36 40.90532 116.80907 25537 ft 417 kts 360°
2026-04-17 10:36 40.93463 116.81079 25956 ft 421 kts 359°
2026-04-17 10:37 40.96365 116.81242 26570 ft 420 kts 359°
2026-04-17 10:37 40.99276 116.81403 27097 ft 421 kts 359°
2026-04-17 10:37 41.02193 116.81561 27730 ft 419 kts 359°
2026-04-17 10:37 41.05124 116.81716 28275 ft 420 kts 359°
2026-04-17 10:38 41.08010 116.81869 28845 ft 419 kts 359°
2026-04-17 10:38 41.10901 116.82022 29039 ft 415 kts 359°
2026-04-17 10:38 41.13773 116.82174 29036 ft 413 kts 359°
2026-04-17 10:39 41.19542 116.82477 29043 ft 414 kts 359°
2026-04-17 10:39 41.25245 116.82775 29040 ft 412 kts 359°
2026-04-17 10:40 41.31015 116.83078 29051 ft 411 kts 359°
2026-04-17 10:40 41.36692 116.83379 29054 ft 408 kts 358°
2026-04-17 10:41 41.42387 116.83678 29073 ft 408 kts 359°
2026-04-17 10:41 41.48033 116.83976 29075 ft 406 kts 359°
2026-04-17 10:42 41.53711 116.84277 29074 ft 408 kts 359°
2026-04-17 10:42 41.59360 116.84577 29071 ft 407 kts 359°
2026-04-17 10:43 41.64969 116.85583 29090 ft 412 kts 13°
2026-04-17 10:43 41.70116 116.89214 29092 ft 427 kts 33°
2026-04-17 10:44 41.74121 116.95228 29089 ft 445 kts 52°
2026-04-17 10:44 41.76766 117.02810 29086 ft 453 kts 59°
2026-04-17 10:45 41.79330 117.10487 29091 ft 450 kts 58°
2026-04-17 10:45 41.81920 117.18076 29088 ft 449 kts 58°
2026-04-17 10:46 41.84537 117.25690 29088 ft 449 kts 58°
2026-04-17 10:46 41.87152 117.33297 29094 ft 449 kts 57°
2026-04-17 10:47 41.89750 117.40862 29082 ft 451 kts 57°
2026-04-17 10:47 41.92369 117.48515 29080 ft 448 kts 58°
2026-04-17 10:48 41.94952 117.56089 29081 ft 451 kts 58°
2026-04-17 10:48 41.97560 117.63745 29071 ft 446 kts 57°
2026-04-17 10:49 42.00128 117.71295 29064 ft 450 kts 57°
2026-04-17 10:49 42.02721 117.78950 29069 ft 451 kts 57°
2026-04-17 10:50 42.05310 117.86617 29068 ft 446 kts 58°
2026-04-17 10:50 42.07871 117.94206 29077 ft 449 kts 57°
2026-04-17 10:51 42.10431 118.01833 29074 ft 447 kts 57°
2026-04-17 10:51 42.13002 118.09492 29080 ft 451 kts 58°
2026-04-17 10:52 42.15570 118.17183 29078 ft 450 kts 57°
2026-04-17 10:52 42.17794 118.25041 29076 ft 460 kts 70°
2026-04-17 10:52 42.18267 118.29378 29077 ft 473 kts 79°
2026-04-17 10:53 42.18383 118.33781 29070 ft 474 kts 81°
2026-04-17 10:53 42.18547 118.42641 29068 ft 477 kts 82°
2026-04-17 10:54 42.18671 118.51539 29061 ft 474 kts 82°
2026-04-17 10:54 42.18781 118.60426 29066 ft 474 kts 82°
2026-04-17 10:55 42.18881 118.69332 29056 ft 477 kts 82°
2026-04-17 10:55 42.18658 118.78268 29066 ft 487 kts 94°
2026-04-17 10:56 42.16568 118.86994 29070 ft 501 kts 113°
2026-04-17 10:56 42.13316 118.95287 29055 ft 500 kts 114°
2026-04-17 10:57 42.10024 119.03548 29056 ft 504 kts 114°
2026-04-17 10:57 42.06715 119.11792 29051 ft 500 kts 114°
2026-04-17 10:58 42.03399 119.20017 29049 ft 501 kts 114°
2026-04-17 10:58 42.00085 119.28211 29052 ft 503 kts 114°
2026-04-17 10:59 41.96762 119.36403 29064 ft 497 kts 115°
2026-04-17 10:59 41.93471 119.44537 29062 ft 497 kts 114°
2026-04-17 11:00 41.90224 119.52729 29066 ft 496 kts 114°
2026-04-17 11:00 41.86983 119.60875 29051 ft 498 kts 114°
2026-04-17 11:01 41.83721 119.69051 29048 ft 497 kts 114°
2026-04-17 11:01 41.80446 119.77235 29055 ft 498 kts 115°
2026-04-17 11:02 41.77179 119.85375 29048 ft 495 kts 115°
2026-04-17 11:02 41.73912 119.93494 29044 ft 497 kts 115°
2026-04-17 11:03 41.70629 120.01627 29037 ft 498 kts 115°
2026-04-17 11:03 41.67348 120.09733 29036 ft 495 kts 115°
2026-04-17 11:04 41.64080 120.17786 29036 ft 496 kts 115°
2026-04-17 11:04 41.60793 120.25869 29020 ft 496 kts 115°
2026-04-17 11:05 41.57492 120.33957 29012 ft 494 kts 115°
2026-04-17 11:05 41.54859 120.42340 28842 ft 492 kts 99°
2026-04-17 11:05 41.54272 120.46787 28603 ft 486 kts 89°
2026-04-17 11:06 41.54201 120.51231 28350 ft 476 kts 81°
2026-04-17 11:06 41.54397 120.55625 28101 ft 477 kts 80°
2026-04-17 11:06 41.54604 120.60053 27840 ft 475 kts 80°
2026-04-17 11:06 41.54816 120.64406 27579 ft 470 kts 80°
2026-04-17 11:07 41.55035 120.68767 27306 ft 471 kts 80°
2026-04-17 11:07 41.55256 120.73103 27042 ft 472 kts 81°
2026-04-17 11:07 41.55476 120.77433 26763 ft 468 kts 80°
2026-04-17 11:07 41.55696 120.81786 26492 ft 467 kts 80°
2026-04-17 11:08 41.55915 120.86105 26231 ft 467 kts 81°
2026-04-17 11:08 41.56131 120.90382 25963 ft 466 kts 80°
2026-04-17 11:08 41.56347 120.94700 25698 ft 462 kts 80°
2026-04-17 11:08 41.56559 120.98972 25432 ft 460 kts 81°
2026-04-17 11:09 41.56767 121.03194 25170 ft 458 kts 81°
2026-04-17 11:09 41.56974 121.07409 24888 ft 458 kts 81°
2026-04-17 11:09 41.57180 121.11658 24624 ft 457 kts 81°
2026-04-17 11:10 41.57561 121.20090 24096 ft 455 kts 82°
2026-04-17 11:10 41.57678 121.24261 23828 ft 452 kts 82°
2026-04-17 11:10 41.57801 121.28492 23568 ft 453 kts 83°
2026-04-17 11:10 41.57921 121.32655 23307 ft 452 kts 83°
2026-04-17 11:11 41.58039 121.36813 23053 ft 450 kts 83°
2026-04-17 11:11 41.58156 121.41029 22795 ft 449 kts 83°
2026-04-17 11:11 41.58270 121.45138 22536 ft 447 kts 83°
2026-04-17 11:11 41.58382 121.49258 22279 ft 446 kts 83°
2026-04-17 11:12 41.58495 121.53407 22023 ft 444 kts 83°
2026-04-17 11:12 41.58605 121.57522 21769 ft 444 kts 83°
2026-04-17 11:12 41.58712 121.61597 21521 ft 443 kts 83°
2026-04-17 11:12 41.58818 121.65713 21230 ft 440 kts 84°
2026-04-17 11:13 41.58922 121.69752 20785 ft 439 kts 84°
2026-04-17 11:13 41.59025 121.73840 20322 ft 435 kts 84°
2026-04-17 11:13 41.59123 121.77800 19876 ft 431 kts 84°
2026-04-17 11:13 41.59220 121.81778 19412 ft 427 kts 84°
2026-04-17 11:14 41.59315 121.85699 18957 ft 424 kts 84°
2026-04-17 11:14 41.59409 121.89661 18494 ft 422 kts 84°
2026-04-17 11:14 41.59501 121.93559 18025 ft 419 kts 84°
2026-04-17 11:14 41.59589 121.97378 17569 ft 416 kts 84°
2026-04-17 11:15 41.59677 122.01226 17104 ft 416 kts 83°
2026-04-17 11:15 41.59764 122.05095 16620 ft 414 kts 83°
2026-04-17 11:15 41.59847 122.08920 16150 ft 411 kts 84°
2026-04-17 11:15 41.59634 122.12714 15701 ft 414 kts 95°
2026-04-17 11:16 41.59226 122.16484 15234 ft 412 kts 94°
2026-04-17 11:16 41.58816 122.20310 14764 ft 410 kts 94°
2026-04-17 11:16 41.58409 122.24026 14308 ft 407 kts 94°
2026-04-17 11:16 41.57996 122.27756 13856 ft 405 kts 94°
2026-04-17 11:17 41.57587 122.31447 13404 ft 402 kts 94°
2026-04-17 11:17 41.57177 122.35128 12967 ft 399 kts 94°
2026-04-17 11:17 41.56772 122.38741 12522 ft 395 kts 95°
2026-04-17 11:17 41.56368 122.42339 12109 ft 393 kts 95°
2026-04-17 11:18 41.55963 122.45928 11670 ft 389 kts 94°
2026-04-17 11:18 41.55559 122.49495 11245 ft 387 kts 95°
2026-04-17 11:18 41.55164 122.52987 10824 ft 386 kts 95°
2026-04-17 11:18 41.54762 122.56531 10399 ft 384 kts 95°
2026-04-17 11:19 41.54365 122.59997 10080 ft 371 kts 95°
2026-04-17 11:19 41.53980 122.63345 10044 ft 354 kts 95°
2026-04-17 11:19 41.53614 122.66524 10009 ft 337 kts 95°
2026-04-17 11:19 41.53269 122.69527 9975 ft 321 kts 95°
2026-04-17 11:20 41.52940 122.72375 9941 ft 303 kts 95°
2026-04-17 11:20 41.52622 122.75156 9934 ft 308 kts 95°
2026-04-17 11:20 41.52293 122.78031 9745 ft 317 kts 95°
2026-04-17 11:20 41.51961 122.80881 9577 ft 310 kts 95°
2026-04-17 11:21 41.51627 122.83737 9418 ft 307 kts 95°
2026-04-17 11:21 41.51301 122.86548 9281 ft 307 kts 95°
2026-04-17 11:21 41.50973 122.89362 9150 ft 307 kts 95°
2026-04-17 11:21 41.50644 122.92172 9018 ft 306 kts 95°
2026-04-17 11:22 41.50318 122.94943 8896 ft 305 kts 95°
2026-04-17 11:22 41.49987 122.97758 8785 ft 305 kts 95°
2026-04-17 11:22 41.49663 123.00511 8662 ft 304 kts 95°
2026-04-17 11:22 41.49334 123.03288 8595 ft 302 kts 95°
2026-04-17 11:23 41.49026 123.06050 8510 ft 301 kts 89°
2026-04-17 11:23 41.49278 123.08755 8437 ft 289 kts 62°
2026-04-17 11:23 41.50305 123.10982 8406 ft 279 kts 44°
2026-04-17 11:23 41.51540 123.12993 8338 ft 279 kts 44°
2026-04-17 11:24 41.52775 123.14961 8264 ft 277 kts 43°
2026-04-17 11:24 41.53301 123.15781 8233 ft 277 kts 42°
2026-04-17 11:25 41.53835 123.16608 8208 ft 277 kts 42°
2026-04-17 11:25 41.54260 123.17262 8187 ft 277 kts 43°
2026-04-17 11:25 41.55535 123.19212 8132 ft 277 kts 42°
2026-04-17 11:25 41.55566 123.19258 8131 ft 277 kts 42°
2026-04-17 11:26 41.55796 123.19607 8121 ft 277 kts 42°
2026-04-17 11:26 41.56823 123.21169 8088 ft 276 kts 42°
2026-04-17 11:27 41.57733 123.22546 8053 ft 274 kts 42°
2026-04-17 11:27 41.59006 123.24470 8004 ft 275 kts 42°
2026-04-17 11:28 41.60265 123.26369 7972 ft 276 kts 42°
2026-04-17 11:28 41.61541 123.28288 7937 ft 276 kts 42°
2026-04-17 11:28 41.62811 123.30205 7902 ft 276 kts 42°
2026-04-17 11:28 41.64084 123.32125 7878 ft 275 kts 42°
2026-04-17 11:29 41.65361 123.34045 7851 ft 275 kts 41°
2026-04-17 11:29 41.66638 123.35969 7824 ft 276 kts 42°
2026-04-17 11:29 41.67908 123.37882 7792 ft 276 kts 42°
2026-04-17 11:29 41.69186 123.39814 7744 ft 276 kts 42°
2026-04-17 11:30 41.70450 123.41730 7732 ft 275 kts 40°
2026-04-17 11:30 41.71843 123.43516 7424 ft 279 kts 36°
2026-04-17 11:30 41.73222 123.45234 7380 ft 266 kts 37°
2026-04-17 11:30 41.74537 123.46902 7354 ft 252 kts 37°
2026-04-17 11:31 41.75776 123.48479 7275 ft 240 kts 36°
2026-04-17 11:31 41.76951 123.49979 7210 ft 230 kts 37°
2026-04-17 11:31 41.78088 123.51523 7140 ft 240 kts 43°
2026-04-17 11:31 41.79211 123.53235 6882 ft 246 kts 41°
2026-04-17 11:32 41.80345 123.54929 6549 ft 244 kts 42°
2026-04-17 11:32 41.81486 123.56646 6232 ft 244 kts 43°
2026-04-17 11:32 41.82605 123.58336 5943 ft 243 kts 43°
2026-04-17 11:32 41.83718 123.60025 5697 ft 240 kts 43°
2026-04-17 11:33 41.84590 123.61898 5541 ft 239 kts 71°
2026-04-17 11:33 41.84635 123.64094 5314 ft 237 kts 107°
2026-04-17 11:33 41.83810 123.65981 5043 ft 234 kts 137°
2026-04-17 11:33 41.82646 123.67510 4730 ft 237 kts 139°
2026-04-17 11:34 41.81459 123.69006 4482 ft 230 kts 147°
2026-04-17 11:34 41.80065 123.69811 4272 ft 214 kts 181°
2026-04-17 11:34 41.78655 123.69425 3954 ft 204 kts 218°
2026-04-17 11:34 41.77593 123.68251 3923 ft 196 kts 226°
2026-04-17 11:35 41.76544 123.66991 3694 ft 208 kts 225°
2026-04-17 11:35 41.75461 123.65685 3395 ft 208 kts 228°
2026-04-17 11:35 41.74501 123.64240 3103 ft 207 kts 232°
2026-04-17 11:35 41.73557 123.62781 2808 ft 208 kts 230°
2026-04-17 11:36 41.72628 123.61368 2511 ft 198 kts 230°
2026-04-17 11:36 41.71753 123.60042 2234 ft 183 kts 229°
2026-04-17 11:36 41.70943 123.58816 2007 ft 168 kts 229°
2026-04-17 11:36 41.70200 123.57690 1766 ft 155 kts 228°
2026-04-17 11:37 41.69505 123.56638 1568 ft 141 kts 228°
2026-04-17 11:37 41.68896 123.55717 1395 ft 124 kts 228°
2026-04-17 11:37 41.68359 123.54906 1217 ft 112 kts 228°
2026-04-17 11:37 41.67828 123.54105 1093 ft 119 kts 228°
2026-04-17 11:38 41.67271 123.53265 925 ft 122 kts 229°
2026-04-17 11:38 41.66709 123.52421 722 ft 123 kts 229°
2026-04-17 11:38 41.66147 123.51572 566 ft 122 kts 229°
2026-04-17 11:38 41.65571 123.50715 419 ft 123 kts 230°
2026-04-17 11:39 41.64997 123.49855 252 ft 124 kts 230°
2026-04-17 11:39 41.64465 123.49045 209 ft 93 kts 228°
2026-04-17 11:39 41.64175 123.48604 208 ft 38 kts 229°
2026-04-17 11:39 41.64030 123.48381 208 ft 28 kts 229°
2026-04-17 11:40 41.63915 123.48207 208 ft 13 kts 229°
2026-04-17 11:40 41.63854 123.48116 208 ft 12 kts 227°
2026-04-17 11:40 41.63783 123.48025 208 ft 16 kts 221°
2026-04-17 11:40 41.63687 123.47944 208 ft 16 kts 205°
2026-04-17 11:41 41.63585 123.47904 208 ft 15 kts 192°
2026-04-17 11:41 41.63514 123.47920 208 ft 12 kts 119°
2026-04-17 11:41 41.63577 123.48088 208 ft 24 kts 47°
2026-04-17 11:41 41.63698 123.48259 208 ft 25 kts 48°
2026-04-17 11:42 41.63813 123.48433 208 ft 25 kts 49°
2026-04-17 11:42 41.63856 123.48536 208 ft 5 kts 124°
2026-04-17 11:42 41.63832 123.48576 208 ft 7 kts 130°
2026-04-17 11:42 41.63769 123.48660 208 ft 16 kts 136°
2026-04-17 11:43 41.63745 123.48771 208 ft 7 kts 62°
2026-04-17 11:43 41.63766 123.48833 208 ft 14 kts 65°
2026-04-17 11:43 41.63847 123.48970 208 ft 20 kts 40°
2026-04-17 11:43 41.63947 123.49104 208 ft 20 kts 46°
2026-04-17 11:44 41.64036 123.49235 208 ft 13 kts 41°
2026-04-17 11:44 41.64094 123.49234 208 ft 8 kts 333°
2026-04-17 11:44 41.64124 123.49186 208 ft 9 kts 272°
2026-04-17 11:44 41.64079 123.49091 208 ft 6 kts 221°
2026-04-17 11:45 41.64051 123.49092 208 ft 4 kts 152°
2026-04-17 11:45 41.64029 123.49115 208 ft 4 kts 136°